| time (UTC) | temp C | wind direction | speed KPH | gust KPH | rain 1hr cm | rain 24hr cm | rain mn cm | humidity % | barometer mb |
| 20260507220054 | 7 | 227 | 4.8 | 19.3 | 0.00 | 3.10 | 3.10 | 95 | 1002.3 |
| 20260507214603 | 7 | 215 | 6.4 | 25.7 | 0.00 | 3.10 | 3.10 | 95 | 1002.6 |
| 20260507213054 | 7 | 223 | 16.1 | 22.5 | 0.00 | 3.10 | 3.10 | 95 | 1002.6 |
| 20260507211620 | 7 | 227 | 14.5 | 25.7 | 0.00 | 3.10 | 3.10 | 95 | 1002.5 |
| 20260507210056 | 8 | 229 | 17.7 | 25.7 | 0.00 | 3.10 | 3.10 | 95 | 1002.6 |
| 20260507204601 | 8 | 238 | 22.5 | 38.6 | 0.00 | 3.10 | 3.10 | 95 | 1002.7 |
| 20260507203054 | 8 | 228 | 19.3 | 30.6 | 0.03 | 3.10 | 3.10 | 95 | 1002.9 |
| 20260507201610 | 8 | 194 | 12.9 | 20.9 | 0.05 | 3.10 | 3.10 | 95 | 1002.9 |
| 20260507194558 | 8 | 116 | 3.2 | 11.3 | 0.20 | 3.10 | 3.10 | 94 | 1001.8 |
| 20260507193107 | 8 | 138 | 4.8 | 20.9 | 0.28 | 3.05 | 3.05 | 94 | 1001.9 |
| 20260507191558 | 8 | 208 | 11.3 | 19.3 | 0.51 | 3.02 | 3.02 | 95 | 1003.2 |
| 20260507190057 | 8 | 141 | 6.4 | 17.7 | 0.61 | 2.97 | 2.97 | 94 | 1003.0 |
| 20260507184555 | 8 | 170 | 6.4 | 14.5 | 0.79 | 2.87 | 2.87 | 94 | 1003.7 |
| 20260507183100 | 9 | 208 | 6.4 | 12.9 | 0.94 | 2.74 | 2.74 | 95 | 1004.3 |
| 20260507181556 | 8 | 233 | 9.7 | 19.3 | 1.07 | 2.51 | 2.51 | 95 | 1004.6 |
| 20260507180058 | 8 | 227 | 9.7 | 19.3 | 1.80 | 2.34 | 2.34 | 94 | 1004.5 |
| 20260507174556 | 8 | 245 | 8.0 | 14.5 | 1.88 | 2.06 | 2.06 | 95 | 1004.8 |
| 20260507173103 | 8 | 239 | 9.7 | 19.3 | 1.60 | 1.78 | 1.78 | 94 | 1005.1 |
| 20260507171557 | 8 | 213 | 12.9 | 27.4 | 1.24 | 1.40 | 1.40 | 95 | 1005.6 |
| 20260507170056 | 7 | 213 | 20.9 | 33.8 | 0.36 | 0.53 | 0.53 | 95 | 1005.3 |
| 20260507164556 | 7 | 175 | 25.7 | 37.0 | 0.03 | 0.18 | 0.18 | 95 | 1004.4 |
| 20260507163053 | 8 | 152 | 25.7 | 43.5 | 0.00 | 0.18 | 0.18 | 95 | 1004.4 |
| 20260507161601 | 7 | 175 | 24.1 | 38.6 | 0.00 | 0.15 | 0.15 | 95 | 1005.0 |
| 20260507160053 | 8 | 183 | 22.5 | 40.2 | 0.00 | 0.15 | 0.15 | 95 | 1005.3 |
| 20260507154555 | 8 | 170 | 24.1 | 37.0 | 0.00 | 0.15 | 0.15 | 95 | 1005.8 |
| 20260507153100 | 8 | 179 | 25.7 | 40.2 | 0.00 | 0.15 | 0.15 | 95 | 1006.1 |
| 20260507151552 | 8 | 175 | 22.5 | 37.0 | 0.00 | 0.13 | 0.13 | 95 | 1006.8 |
| 20260507150056 | 8 | 175 | 22.5 | 29.0 | 0.00 | 0.13 | 0.13 | 95 | 1007.2 |
| 20260507144555 | 7 | 170 | 19.3 | 32.2 | 0.00 | 0.13 | 0.13 | 95 | 1007.6 |
| 20260507143055 | 7 | 175 | 19.3 | 29.0 | 0.00 | 0.13 | 0.13 | 95 | 1008.0 |
| 20260507141559 | 7 | 175 | 20.9 | 38.6 | 0.00 | 0.13 | 0.13 | 95 | 1008.2 |
| 20260507140109 | 7 | 162 | 19.3 | 29.0 | 0.00 | 0.13 | 0.13 | 95 | 1008.7 |
| 20260507134554 | 7 | 175 | 16.1 | 29.0 | 0.00 | 0.13 | 0.13 | 95 | 1008.8 |
| 20260507133058 | 7 | 150 | 19.3 | 27.4 | 0.00 | 0.10 | 0.10 | 95 | 1009.1 |
| 20260507131559 | 7 | 127 | 16.1 | 27.4 | 0.00 | 0.10 | 0.10 | 95 | 1009.5 |
| 20260507130056 | 7 | 175 | 17.7 | 27.4 | 0.00 | 0.10 | 0.10 | 95 | 1009.5 |
| 20260507124556 | 7 | 170 | 16.1 | 27.4 | 0.00 | 0.10 | 0.10 | 95 | 1009.7 |
| 20260507123059 | 7 | 160 | 16.1 | 30.6 | 0.00 | 0.10 | 0.10 | 95 | 1010.0 |
| 20260507121556 | 8 | 175 | 19.3 | 29.0 | 0.00 | 0.10 | 0.10 | 95 | 1010.1 |
| 20260507120059 | 7 | 170 | 20.9 | 35.4 | 0.00 | 0.10 | 0.10 | 95 | 1010.0 |
| 20260507114603 | 7 | 175 | 19.3 | 30.6 | 0.00 | 0.10 | 0.10 | 95 | 1010.1 |
| 20260507113107 | 7 | 184 | 20.9 | 33.8 | 0.08 | 0.10 | 0.10 | 94 | 1010.3 |
| 20260507111558 | 8 | 179 | 19.3 | 37.0 | 0.10 | 0.10 | 0.10 | 95 | 1010.6 |
| 20260507110101 | 7 | 183 | 24.1 | 38.6 | 0.08 | 0.08 | 0.08 | 95 | 1010.7 |
| 20260507104558 | 7 | 183 | 22.5 | 35.4 | 0.08 | 0.08 | 0.08 | 94 | 1010.8 |
| 20260507103058 | 8 | 161 | 27.4 | 43.5 | 0.00 | 0.00 | 0.00 | 95 | 1010.9 |
| 20260507101606 | 8 | 187 | 29.0 | 48.3 | 0.00 | 0.00 | 0.00 | 95 | 1010.9 |
| 20260507100058 | 7 | 175 | 25.7 | 43.5 | 0.00 | 0.00 | 0.00 | 95 | 1010.6 |
| 20260507094602 | 7 | 185 | 29.0 | 51.5 | 0.00 | 0.00 | 0.00 | 95 | 1010.8 |
| 20260507093053 | 7 | 186 | 24.1 | 45.1 | 0.00 | 0.00 | 0.00 | 95 | 1010.7 |
| 20260507091603 | 8 | 175 | 24.1 | 43.5 | 0.00 | 0.00 | 0.00 | 95 | 1010.8 |
| 20260507090110 | 8 | 154 | 25.7 | 43.5 | 0.00 | 0.00 | 0.00 | 95 | 1011.1 |
| 20260507084557 | 7 | 187 | 24.1 | 40.2 | 0.00 | 0.00 | 0.00 | 95 | 1011.3 |
| 20260507083059 | 7 | 180 | 22.5 | 30.6 | 0.00 | 0.00 | 0.00 | 95 | 1011.5 |
| 20260507081558 | 7 | 175 | 24.1 | 37.0 | 0.00 | 0.00 | 0.00 | 95 | 1011.5 |
| 20260507080056 | 7 | 196 | 20.9 | 32.2 | 0.00 | 0.00 | 0.00 | 95 | 1011.3 |
| 20260507074602 | 7 | 153 | 19.3 | 29.0 | 0.00 | 0.00 | 0.00 | 95 | 1011.5 |
| 20260507073110 | 8 | 189 | 24.1 | 30.6 | 0.00 | 0.00 | 0.00 | 95 | 1012.2 |
| 20260507071601 | 7 | 199 | 19.3 | 27.4 | 0.00 | 0.00 | 0.00 | 95 | 1012.3 |
| 20260507070138 | 7 | 137 | 14.5 | 24.1 | 0.00 | 0.00 | 0.00 | 94 | 1012.5 |
| 20260507064556 | 7 | 175 | 14.5 | 20.9 | 0.00 | 0.00 | 0.00 | 94 | 1012.9 |
| 20260507063101 | 7 | 210 | 14.5 | 25.7 | 0.00 | 0.00 | 0.00 | 94 | 1013.2 |
| 20260507061555 | 7 | 209 | 14.5 | 20.9 | 0.00 | 0.00 | 0.00 | 94 | 1013.6 |
| 20260507060056 | 7 | 187 | 14.5 | 22.5 | 0.00 | 0.00 | 0.00 | 94 | 1013.8 |
| 20260507054557 | 7 | 196 | 11.3 | 22.5 | 0.00 | 0.00 | 0.00 | 94 | 1013.8 |
| 20260507053100 | 7 | 189 | 12.9 | 22.5 | 0.00 | 0.00 | 0.00 | 94 | 1013.9 |
| 20260507051553 | 7 | 175 | 14.5 | 22.5 | 0.00 | 0.00 | 0.00 | 94 | 1014.3 |
| 20260507050057 | 7 | 194 | 16.1 | 24.1 | 0.00 | 0.00 | 0.00 | 94 | 1014.3 |
| 20260507044556 | 7 | 141 | 11.3 | 25.7 | 0.00 | 0.00 | 0.00 | 94 | 1014.5 |
| 20260507043053 | 7 | 203 | 14.5 | 24.1 | 0.00 | 0.00 | 0.00 | 93 | 1015.2 |
| 20260507041553 | 7 | 175 | 9.7 | 20.9 | 0.00 | 0.00 | 0.00 | 93 | 1015.3 |
| 20260507040057 | 7 | 180 | 9.7 | 17.7 | 0.00 | 0.00 | 0.00 | 93 | 1015.7 |
| 20260507034559 | 8 | 182 | 11.3 | 17.7 | 0.00 | 0.00 | 0.00 | 92 | 1016.0 |
| 20260507033054 | 8 | 244 | 9.7 | 14.5 | 0.00 | 0.00 | 0.00 | 93 | 1016.3 |
| 20260507031554 | 8 | 298 | 0.0 | 16.1 | 0.00 | 0.00 | 0.00 | 93 | 1016.6 |
| 20260507030107 | 8 | 225 | 16.1 | 29.0 | 0.00 | 0.00 | 0.00 | 93 | 1016.9 |
| 20260507024600 | 7 | 246 | 12.9 | 25.7 | 0.00 | 0.00 | 0.00 | 93 | 1017.2 |
| 20260507023054 | 7 | 210 | 9.7 | 16.1 | 0.00 | 0.00 | 0.00 | 94 | 1017.4 |
| 20260507021616 | 7 | 222 | 8.0 | 17.7 | 0.00 | 0.00 | 0.00 | 94 | 1017.7 |
| 20260507020107 | 7 | 197 | 8.0 | 17.7 | 0.00 | 0.00 | 0.00 | 93 | 1017.9 |
| 20260507014612 | 7 | 0 | 6.4 | 19.3 | 0.00 | 0.00 | 0.00 | 93 | 1018.1 |
| 20260507013055 | 7 | 183 | 6.4 | 12.9 | 0.00 | 0.00 | 0.00 | 93 | 1018.3 |
| 20260507011559 | 7 | 175 | 11.3 | 25.7 | 0.00 | 0.00 | 0.00 | 93 | 1018.4 |
| 20260507010108 | 7 | 175 | 6.4 | 11.3 | 0.00 | 0.00 | 0.00 | 93 | 1018.3 |
| 20260507004554 | 7 | 186 | 8.0 | 17.7 | 0.00 | 0.00 | 0.00 | 93 | 1018.4 |
| 20260507003056 | 7 | 170 | 17.7 | 27.4 | 0.00 | 0.00 | 0.00 | 93 | 1018.5 |
| 20260507001602 | 7 | 197 | 4.8 | 16.1 | 0.00 | 0.00 | 0.00 | 93 | 1018.4 |
| 20260507000053 | 7 | 206 | 16.1 | 22.5 | 0.00 | 0.00 | 0.00 | 93 | 1018.4 |
| 20260506234558 | 8 | 185 | 12.9 | 30.6 | 0.00 | 0.00 | 0.00 | 92 | 1018.3 |
| 20260506233057 | 9 | 203 | 24.1 | 37.0 | 0.00 | 0.00 | 0.00 | 92 | 1018.3 |
| 20260506231555 | 9 | 233 | 24.1 | 37.0 | 0.00 | 0.00 | 0.00 | 92 | 1018.5 |
| 20260506230103 | 9 | 209 | 20.9 | 32.2 | 0.00 | 0.00 | 0.00 | 92 | 1018.4 |
| 20260506224558 | 9 | 256 | 3.2 | 16.1 | 0.00 | 0.00 | 0.00 | 92 | 1018.3 |
| 20260506223057 | 9 | 231 | 9.7 | 19.3 | 0.00 | 0.00 | 0.00 | 92 | 1018.2 |
| 20260506221558 | 8 | 218 | 11.3 | 19.3 | 0.00 | 0.00 | 0.00 | 92 | 1018.1 |